Change the Weather History Date:

Friday, November 30, 2012

  Actual Average Record
Temperature  
Mean Temperature 42 °F -  
Max Temperature 60 °F 46 °F 66 °F (2003)
Min Temperature 24 °F 24 °F 6 °F (2004)
Degree Days  
Heating Degree Days 23    
Moisture  
Dew Point 26 °F    
Average Humidity 60    
Maximum Humidity 93    
Minimum Humidity 29    
Precipitation  
Precipitation 0.00 in - - ()
Sea Level Pressure  
Sea Level Pressure 29.99 in    
Wind  
Wind Speed 7 mph (ESE)    
Max Wind Speed 13 mph    
Max Gust Speed -    
Visibility 10 miles    
Events      
Averages and records for this station are not official NWS values.
T = Trace of Precipitation, MM = Missing Value Source: NWS Daily Summary

Daily Weather History Graph

Daily Weather History Graph

Search for Another Location

Airport or City:

Trip Planner

Search our weather history database for the weather conditions in past years. The results will help you decide how hot, cold, wet, or windy it might be!

Date:

Astronomy

Nov. 30, 2012 Rise Set
Actual Time 7:36 AM CST 5:15 PM CST
Civil Twilight 7:06 AM CST 5:45 PM CST
Nautical Twilight 6:33 AM CST 6:18 PM CST
Astronomical Twilight 6:01 AM CST 6:50 PM CST
Moon 7:11 PM CST (11/30) 9:09 AM CST (11/30)
Length of Visible Light 10h 38m
Length of Day
9h 39m
Waning Gibbous, 96% of the Moon is Illuminated
Nov 30
Waning Gibbous
Dec 6
Last Quarter
Dec 13
New
Dec 19
First Quarter
Dec 28
Full

Hourly Weather History & Observations

Time (CST) Temp. Windchill Dew Point Humidity Pressure Visibility Wind Dir Wind Speed Gust Speed Precip Events Conditions
12:15 AM 30.2 °F 21.9 °F 23.0 °F 75% 30.00 in 10.0 mi NW 9.2 mph - N/A   Clear
12:35 AM 35.6 °F 29.2 °F 26.6 °F 70% 30.01 in 10.0 mi NW 8.1 mph - N/A   Clear
12:55 AM 37.4 °F 32.8 °F 26.6 °F 65% 30.00 in 10.0 mi NW 5.8 mph - N/A   Clear
1:15 AM 35.6 °F 30.7 °F 24.8 °F 65% 30.01 in 10.0 mi West 5.8 mph - N/A   Clear
1:35 AM 30.2 °F - 21.2 °F 69% 30.01 in 10.0 mi Calm Calm - N/A   Clear
1:55 AM 33.8 °F 29.6 °F 24.8 °F 70% 29.99 in 10.0 mi WNW 4.6 mph - N/A   Clear
2:15 AM 30.2 °F - 21.2 °F 69% 30.00 in 10.0 mi Calm Calm - N/A   Clear
2:35 AM 28.4 °F - 21.2 °F 74% 30.00 in 10.0 mi Calm Calm - N/A   Clear
2:55 AM 28.4 °F 22.2 °F 19.4 °F 69% 30.01 in 10.0 mi SW 5.8 mph - N/A   Clear
3:15 AM 26.6 °F 21.2 °F 21.2 °F 80% 30.01 in 10.0 mi WSW 4.6 mph - N/A   Clear
3:35 AM 28.4 °F 23.3 °F 19.4 °F 69% 30.01 in 10.0 mi WNW 4.6 mph - N/A   Clear
3:55 AM 28.4 °F 22.2 °F 19.4 °F 69% 30.00 in 10.0 mi NW 5.8 mph - N/A   Clear
4:15 AM 26.6 °F 20.0 °F 19.4 °F 74% 30.00 in 10.0 mi NW 5.8 mph - N/A   Clear
4:35 AM 26.6 °F 21.2 °F 19.4 °F 74% 30.00 in 10.0 mi WNW 4.6 mph - N/A   Clear
4:55 AM 24.8 °F 17.9 °F 15.8 °F 69% 30.02 in 10.0 mi NW 5.8 mph - N/A   Clear
5:15 AM 28.4 °F 20.4 °F 19.4 °F 69% 30.02 in 10.0 mi NW 8.1 mph - N/A   Clear
5:35 AM 28.4 °F 19.7 °F 17.6 °F 64% 30.02 in 10.0 mi North 9.2 mph - N/A   Clear
5:55 AM 28.4 °F 21.2 °F 19.4 °F 69% 30.03 in 10.0 mi NNW 6.9 mph - N/A   Clear
6:15 AM 26.6 °F 21.2 °F 17.6 °F 69% 30.03 in 10.0 mi West 4.6 mph - N/A   Clear
6:35 AM 26.6 °F 20.0 °F 17.6 °F 69% 30.03 in 10.0 mi WNW 5.8 mph - N/A   Clear
6:55 AM 26.6 °F 19.1 °F 17.6 °F 69% 30.04 in 10.0 mi NNW 6.9 mph - N/A   Clear
7:15 AM 28.4 °F 24.6 °F 17.6 °F 64% 30.05 in 10.0 mi North 3.5 mph - N/A   Clear
7:35 AM 28.4 °F - 19.4 °F 69% 30.05 in 10.0 mi Calm Calm - N/A   Clear
7:55 AM 26.6 °F 22.6 °F 17.6 °F 69% 30.06 in 10.0 mi North 3.5 mph - N/A   Clear
8:15 AM 28.4 °F - 19.4 °F 69% 30.06 in 9.0 mi Calm Calm - N/A   Clear
8:35 AM 32.0 °F - 21.2 °F 64% 30.06 in 7.0 mi Calm Calm - N/A   Clear
8:55 AM 33.8 °F 29.6 °F 24.8 °F 70% 30.06 in 7.0 mi NE 4.6 mph - N/A   Clear
9:15 AM 41.0 °F 35.8 °F 26.6 °F 57% 30.06 in 10.0 mi ENE 8.1 mph - N/A   Clear
9:35 AM 42.8 °F 37.5 °F 28.4 °F 57% 30.06 in 10.0 mi ENE 9.2 mph - N/A   Clear
9:55 AM 44.6 °F 40.2 °F 28.4 °F 53% 30.07 in 10.0 mi East 8.1 mph - N/A   Clear
10:15 AM 46.4 °F 41.9 °F 28.4 °F 50% 30.07 in 10.0 mi East 9.2 mph - N/A   Clear
10:35 AM 48.2 °F - 28.4 °F 46% 30.07 in 10.0 mi East 12.7 mph - N/A   Clear
10:55 AM 48.2 °F - 28.4 °F 46% 30.09 in 10.0 mi East 10.4 mph - N/A   Clear
11:15 AM 48.2 °F - 26.6 °F 43% 30.08 in 10.0 mi ESE 8.1 mph - N/A   Clear
11:35 AM 48.2 °F - 28.4 °F 46% 30.06 in 10.0 mi ESE 8.1 mph - N/A   Clear
11:55 AM 50.0 °F - 28.4 °F 43% 30.06 in 10.0 mi East 8.1 mph - N/A   Clear
12:15 PM 51.8 °F - 28.4 °F 41% 30.04 in 10.0 mi ESE 8.1 mph - N/A   Clear
12:35 PM 53.6 °F - 28.4 °F 38% 30.02 in 10.0 mi ESE 9.2 mph - N/A   Clear
12:55 PM 53.6 °F - 28.4 °F 38% 30.01 in 10.0 mi ESE 10.4 mph - N/A   Clear
1:15 PM 53.6 °F - 28.4 °F 38% 30.00 in 10.0 mi ESE 8.1 mph - N/A   Clear
1:35 PM 55.4 °F - 30.2 °F 38% 29.99 in 10.0 mi SE 10.4 mph - N/A   Clear
1:55 PM 57.2 °F - 30.2 °F 36% 29.98 in 10.0 mi ESE 8.1 mph - N/A   Clear
2:15 PM 57.2 °F - 30.2 °F 36% 29.96 in 10.0 mi ESE 10.4 mph - N/A   Clear
2:35 PM 60.8 °F - 30.2 °F 31% 29.95 in 10.0 mi ESE 11.5 mph - N/A   Clear
2:55 PM 60.8 °F - 30.2 °F 31% 29.94 in 10.0 mi ESE 11.5 mph - N/A   Clear
3:15 PM 60.8 °F - 30.2 °F 31% 29.94 in 10.0 mi ESE 10.4 mph - N/A   Clear
3:35 PM 60.8 °F - 30.2 °F 31% 29.95 in 10.0 mi SE 10.4 mph - N/A   Clear
3:55 PM 60.8 °F - 28.4 °F 29% 29.94 in 10.0 mi SE 11.5 mph - N/A   Clear
4:15 PM 59.0 °F - 30.2 °F 34% 29.94 in 10.0 mi ESE 10.4 mph - N/A   Clear
4:35 PM 57.2 °F - 28.4 °F 33% 29.94 in 10.0 mi ESE 9.2 mph - N/A   Clear
4:55 PM 53.6 °F - 28.4 °F 38% 29.94 in 10.0 mi ESE 8.1 mph - N/A   Clear
5:15 PM 51.8 °F - 28.4 °F 41% 29.94 in 10.0 mi East 6.9 mph - N/A   Clear
5:35 PM 48.2 °F - 28.4 °F 46% 29.93 in 10.0 mi ESE 9.2 mph - N/A   Clear
5:55 PM 48.2 °F - 28.4 °F 46% 29.93 in 10.0 mi ESE 10.4 mph - N/A   Clear
6:15 PM 46.4 °F 41.9 °F 30.2 °F 53% 29.94 in 10.0 mi ESE 9.2 mph - N/A   Clear
6:35 PM 44.6 °F 40.2 °F 28.4 °F 53% 29.95 in 10.0 mi ESE 8.1 mph - N/A   Clear
7:15 PM 42.8 °F 38.6 °F 28.4 °F 57% 29.94 in 10.0 mi SE 6.9 mph - N/A   Clear
7:35 PM 42.8 °F 38.0 °F 30.2 °F 61% 29.93 in 10.0 mi ESE 8.1 mph - N/A   Clear
7:55 PM 41.0 °F 35.8 °F 28.4 °F 61% 29.93 in 10.0 mi ESE 8.1 mph - N/A   Clear
8:15 PM 39.2 °F 34.2 °F 28.4 °F 65% 29.93 in 10.0 mi SE 6.9 mph - N/A   Clear
8:35 PM 39.2 °F 33.6 °F 30.2 °F 70% 29.92 in 10.0 mi SE 8.1 mph - N/A   Clear
8:55 PM 39.2 °F 33.0 °F 32.0 °F 75% 29.91 in 10.0 mi SE 9.2 mph - N/A   Clear
9:15 PM 41.0 °F 36.4 °F 33.8 °F 76% 29.90 in 10.0 mi SE 6.9 mph - N/A   Clear
9:35 PM 39.2 °F 35.0 °F 33.8 °F 81% 29.90 in 10.0 mi ESE 5.8 mph - N/A   Clear
9:55 PM 39.2 °F 34.2 °F 33.8 °F 81% 29.90 in 10.0 mi SE 6.9 mph - N/A   Clear
10:15 PM 37.4 °F 33.8 °F 33.8 °F 87% 29.89 in 9.0 mi SSE 4.6 mph - N/A   Clear
10:35 PM 37.4 °F 34.9 °F 33.8 °F 87% 29.89 in 8.0 mi SSE 3.5 mph - N/A   Clear
10:55 PM 37.4 °F 33.8 °F 33.8 °F 87% 29.89 in 8.0 mi South 4.6 mph - N/A   Clear
11:15 PM 39.2 °F 35.0 °F 35.6 °F 87% 29.88 in 7.0 mi South 5.8 mph - N/A   Clear
11:35 PM 37.4 °F 32.8 °F 33.8 °F 87% 29.88 in 5.0 mi South 5.8 mph - N/A   Clear
11:55 PM 39.2 °F 34.2 °F 37.4 °F 93% 29.87 in 4.0 mi SSE 6.9 mph - N/A   Clear